Location: Unspecified
(43.4354°N, 0.0000°E)
Time: 03:33:29
(UTC+00:00)

Transit 2A - Pass Details

Date: 24 June 2019
Orbit: 595 x 964 km, 66.7° (Epoch: 22 July)

Event Time Altitude Azimuth Distance (km) Brightness Sun altitude
Rises 22:40:46 0° 183° (S) 3,603 - -20.6°
Reaches altitude 10° 22:43:29 10° 175° (S) 2,681 - -20.7°
Exits shadow 22:48:07 34° 132° (SE) 1,529 7.1 -21.0°
Maximum altitude 22:49:11 36° 111° (ESE) 1,468 7.1 -21.1°
Drops below altitude 10° 22:54:52 10° 47° (NE) 2,672 9.1 -21.4°
Sets 22:57:33 0° 39° (NE) 3,590 10.0 -21.5°
